Orbital Elements at Epoch 2459200.5 (2020-Dec-17.0) TDB
Reference: JPL 17 (heliocentric ecliptic J2000)
Element | Value | Uncertainty (1-sigma) | Units |
e | .1537625533086365 | 5.0592e-08 | |
a | 3.134734033920654 | 3.4785e-08 | au |
q | 2.652729324921532 | 1.6777e-07 | au |
i | 5.386149427588673 | 6.3584e-06 | deg |
node | 45.73294173805004 | 5.2243e-05 | deg |
peri | 220.8467878891088 | 5.606e-05 | deg |
M | 338.5797300472181 | 2.1306e-05 | deg |
tp | 2459321.120719449435 (2021-Apr-16.62071945) | 0.00012088 | TDB |
period | 2027.21343370171 5.55 | 3.3743e-05 9.238e-08 | d yr |
n | .1775836692945729 | 2.9559e-09 | deg/d |
Q | 3.616738742919775 | 4.0133e-08 | au |
|
| | Orbit Determination Parameters
Additional Information
|